GORIZONT 9 [-]

Last updated on Wed Jun 28 2023 00:02:54 GMT+0000 (Coordinated Universal Time)

1 14940U 84041A 23177.47541684 .00000085 00000+0 00000+0 0 9995 2 14940 10.8107 320.1828 0004987 211.9363 327.3947 1.00288164111125
UTC large
Height (km)
Speed (km/s)
/
Latitude / Longitude
Inclination (degrees)
Orbital Period (minutes)
Azimuth
Elevation
Range (km)
Doppler Factor

Next 0 passes for location: London (51.5072 / 0.1276)

Sorry there are no passes over London.